Regional Weather Roundup
Issued by NWS

Home | Current Version | Previous Version | Graphics & Text | Print | Product List | Glossary On
Versions: 1 2 3 4 5 6 7 8 9 10 11 12 13 14 15 16 17 18 19 20 21 22 23 24 25 26 27 28 29 30 31 32 33 34 35 36 37 38 39 40 41 42 43 44 45 46 47 48 49 50
000
ASUS43 KMPX 220610
RWRMN
WEATHER ROUNDUP FOR MINNESOTA
NATIONAL WEATHER SERVICE TWIN CITIES/CHANHASSEN MN
1200 AM CST WED NOV 22 2017


NOTE: "FAIR" INDICATES FEW OR NO CLOUDS BELOW 12,000 FEET WITH NO
SIGNIFICANT WEATHER AND/OR OBSTRUCTIONS TO VISIBILITY. N/A MEANS
CURRENT SKY AND/OR WEATHER CONDITIONS ARE NOT AVAILABLE.

MNZ060>063-068>070-220700-
   Twin Cities Metro

CITY           SKY/WX    TMP DP  RH WIND       PRES   REMARKS
TWIN CITIES    CLOUDY    19  11  70 NW10      30.34R WCI   7
6HR MIN TEMP:  19; 6HR MAX TEMP:  25;

ST PAUL        CLOUDY    18  10  71 NW10      30.36R WCI   6
CRYSTAL        CLOUDY    17   8  67 NW8       30.33R WCI   7
BLAINE         CLOUDY    18  12  79 NW6       30.33R WCI   9
LAKEVILLE      CLOUDY    16  10  79 NW8       30.33R WCI   5
EDEN PRAIRIE   CLOUDY    19  10  68 NW9       30.34R WCI   8
6HR MIN TEMP:  19; 6HR MAX TEMP:  25;

SOUTH ST PAUL  CLOUDY    19  10  69 NW6       30.35R WCI  11
LAKE ELMO      FAIR      18  12  79 NW3       30.34R
$$
MNZ001>005-007-008-013>017-022>024-027-028-220700-
   Northwest Minnesota

CITY           SKY/WX    TMP DP  RH WIND       PRES   REMARKS
BEMIDJI        CLOUDY     9   7  89 W7        30.27S WCI  -2
HALLOCK        CLOUDY     7   3  85 S5        30.30R WCI  -2
ROSEAU         CLOUDY    12   9  85 W5        30.27R WCI   4
WARROAD        CLOUDY    10   7  85 SW5       30.25S WCI   2
THIEF RVR FALL CLOUDY     9   7  92 SW6       30.31R WCI  -1
CROOKSTON      CLOUDY    10   7  85 SW7       30.33R WCI   0
FOSSTON        CLOUDY     7   3  85 SW5       30.29S WCI  -2
DETROIT LAKES  CLOUDY    14  10  85 W5        30.30F WCI   6
MOORHEAD       CLOUDY    10   5  79 CALM      30.35S
PARK RAPIDS    CLOUDY    10   6  84 W6        30.27F WCI   0
MAHNOMEN       FAIR      10   7  87 W8        30.30S WCI  -1
$$
MNZ006-009>011-018-025>026-220700-
   North Central Minnesota

CITY           SKY/WX    TMP DP  RH WIND       PRES   REMARKS
BAUDETTE       CLOUDY     9   6  88 W3        30.24R
FLAG ISLAND    CLOUDY    10   7  85 NW8       30.22F WCI  -1
INTL FALLS       N/A      9   5  84 W7        30.24R WCI  -2
6HR MIN TEMP:   7; 6HR MAX TEMP:  16; 6HR PCP: TRACE;

WASKISH        CLOUDY    14  10  85 W8        30.27R WCI   3
BIG FORK       CLOUDY     9   7  92 CALM      30.26R
LONGVILLE      CLOUDY    12   9  85 CALM      30.28S
GRAND RAPIDS   CLOUDY    13   9  84 W6        30.29R WCI   4
CRANE LAKE     FLURRIES  14  10  85 W7        30.24R WCI   4
ORR            CLOUDY     9   5  85 W3        30.21R
COOK           CLOUDY    10   9  92 W6        30.24R WCI   1
WALKER         FAIR      10   7  85 W5        30.29R WCI   2
$$
MNZ012-019>021-037-220700-
   Northeast Minnesota

CITY           SKY/WX    TMP DP  RH WIND       PRES   REMARKS
DULUTH         FLURRIES  15   9  76 NW12      30.21S WCI   2
6HR MIN TEMP:  14; 6HR MAX TEMP:  16; 6HR PCP: TRACE;

ELY            FLURRIES  14  10  85 W5        30.20R WCI   6
HIBBING        CLOUDY    12   8  84 W3        30.25R
EVELETH        LGT SNOW  14   7  76 W5        30.25R WCI   6
DULUTH HARBOR  CLOUDY    19  12  73 W5        30.30R WCI  13
TWO HARBORS    CLEAR     18  10  73 W5        30.20F WCI  11
SILVER BAY     CLEAR     16  10  79 NW5       30.18F WCI   9
GRAND MARAIS     N/A     22  12  65 VRB5      30.20R WCI  16
G MARAIS ARPRT FLURRIES  14   7  73 NW8       30.12S WCI   3
$$
MNZ029>031-032-039>041-046>048-054>057-064-220700-
   West Central Minnesota

CITY           SKY/WX    TMP DP  RH WIND       PRES   REMARKS
FERGUS FALLS   CLOUDY    10   7  85 NW3       30.37F
WHEATON        CLOUDY    10   7  85 W3        30.39S
MORRIS         CLOUDY    12   9  85 CALM      30.35S
ALEXANDRIA     CLOUDY    13   9  84 W7        30.34R WCI   3
ELBOW LAKE     FAIR      12   9  88 CALM      30.35F
WADENA         CLOUDY    10   7  85 W5        30.31S WCI   2
GLENWOOD       CLOUDY    12  10  92 W6        30.34R WCI   3
APPLETON         N/A     12   9  85 CALM      30.37S
BENSON         CLOUDY    10   7  85 NW3       30.38R
ORTONVILLE     CLOUDY    12   7  79 MISG      30.36S
MADISON        CLOUDY    16  10  79 CALM      30.37S
WILLMAR        FAIR      16  12  86 NW5       30.37R WCI   9
$$
MNZ033>034-036-042>043-049>051-058-059-220700-
   Central Minnesota

CITY           SKY/WX    TMP DP  RH WIND       PRES   REMARKS
ST CLOUD       PTCLDY    13   9  84 W7        30.34R WCI   3
6HR MIN TEMP:  13; 6HR MAX TEMP:  20;

SAUK CENTRE    FAIR      13  10  86 W5        30.34R WCI   6
PAYNESVILLE    CLOUDY    14  11  88 W3        30.36R
AITKIN         CLOUDY    12   7  79 CALM      30.28R
PINE RIVER     CLOUDY    10   7  85 CALM      30.31F
BRAINERD       CLOUDY    16   9  74 NW6       30.30R WCI   7
STAPLES        CLOUDY    10   7  85 W6        30.30S WCI   1
LONG PRAIRIE   FAIR      12   9  85 SW3       30.33R
LITTLE FALLS   CLOUDY    14   5  67 CALM      30.33R
LITCHFIELD     CLOUDY    18  12  79 NW8       30.35R WCI   7
BUFFALO        CLOUDY    17  10  74 NW6       30.36R WCI   8
MAPLE LAKE     CLEAR     17  12  81 NW6       30.35R WCI   8
HUTCHINSON     CLOUDY    18  13  79 NW8       30.36R WCI   8
$$
MNZ037-044-045-052-053-220700-
   East Central Minnesota

CITY           SKY/WX    TMP DP  RH WIND       PRES   REMARKS
PRINCETON      CLOUDY    14  10  85 W3        30.33R
MORA           CLOUDY    18  10  73 CALM      30.33R
CAMBRIDGE      CLOUDY    18   9  68 W3        30.33R
RUSH CITY      CLOUDY    16  10  79 NW3       30.32R
MOOSE LAKE     CLOUDY    19  10  68 NW5       30.27R WCI  13
HINCKLEY       CLOUDY    19  12  73 NW3       30.30R
CLOQUET        FLURRIES  18   9  68 W10       30.25R WCI   6
MCGREGOR       CLOUDY    18  12  79 NW6       30.29R WCI   9
$$
MNZ071>073-080-081-089-090-097-098-220700-
   Southwest Minnesota

CITY           SKY/WX    TMP DP  RH WIND       PRES   REMARKS
MONTEVIDEO     CLOUDY    14   9  79 N3        30.38R
GRANITE FALLS  CLOUDY    12   8  85 W6        30.40R WCI   3
CANBY          PTCLDY    15  10  79 SW5       30.38S WCI   8
MARSHALL       CLOUDY    13   7  77 W7        30.38R WCI   3
REDWOOD FALLS  CLOUDY    15   8  73 W7        30.38R WCI   5
OLIVIA         CLOUDY    16  10  79 NW6       30.36R WCI   7
PIPESTONE      CLOUDY    14   7  73 NW5       30.34R WCI   6
WINDOM           N/A     14   1  57 W6        30.34S WCI   5
WORTHINGTON    CLOUDY    15   7  70 NW6       30.35R WCI   6
JACKSON        CLOUDY    16   9  73 CALM      30.35R
SLAYTON        CLOUDY    11   6  79 NW7       30.35R WCI   1
$$
MNZ065>067-074>077-082>085-091>093-220700-
   South Central Minnesota

CITY           SKY/WX    TMP DP  RH WIND       PRES   REMARKS
MANKATO        CLOUDY    17  11  77 NW10      30.36  WCI   5
NEW ULM        CLOUDY    18   9  68 CALM      30.36R
ST JAMES       CLOUDY    16  10  79 NW8       30.37R WCI   5
FAIRMONT       CLOUDY    18  10  71 NW9       30.37R WCI   7
GLENCOE        CLOUDY    19  13  79 NW6       30.35R WCI  10
FARIBAULT      CLOUDY    18  12  79 W6        30.33R WCI   9
OWATONNA       CLOUDY    18  12  79 NW9       30.32R WCI   6
WASECA         CLOUDY    18  12  79 NW7       30.35R WCI   8
ALBERT LEA     CLEAR     18  10  73 NW7       30.31R WCI   8
$$
MNZ078>079-086>088-094>096-220700-
   Southeast Minnesota

CITY           SKY/WX    TMP DP  RH WIND       PRES   REMARKS
ROCHESTER      CLOUDY    16  12  84 NW9       30.28R WCI   4
6HR MIN TEMP:  16; 6HR MAX TEMP:  22;

RED WING       CLEAR     19   9  63 NW5       30.32R WCI  13
STANTON        CLOUDY    19  12  73 NW7       30.33R WCI  10
DODGE CENTER   CLOUDY    18  10  73 NW7       30.29R WCI   8
WINONA           N/A     23  14  68 NW5       30.32R WCI  17
AUSTIN         PTCLDY    18  12  79 NW7       30.30R WCI   8
PRESTON        CLOUDY    17  11  78 NW9       30.28R WCI   6
$$
ABBREVIATIONS USED IN REMARKS
   TC - TEMPERATURES IN CELSIUS
  WCI - WIND CHILL INDEX
   HX - HEAT INDEX
  VSB - VISIBILITY
$$




USA.gov is the U.S. government's official web portal to all federal, state and local government web resources and services.